Thamesteel1 — V7OI7 — position and weather

sailwx.info

Track history (hours):
 
Tides and Currents Weather Stations Pressure Air Temp Water Temp Dewpoint Dewpoint Depression Visibility Wind Speed Wind Dir Waves Ship Positions

Thamesteel1

Last reported at 2016-Aug-29 20:33 UTC. Time now 2016-Sep-25 17:25 UTC.
Position S 00°14' W 047°55'.
Warning: this ship's position is 26 days out of date.

Length 89 m; draft 4.8 m.

Type: Cargo ship. MMSI: 538003096.

Date/timePositionNaut miles runAvg speedWind from/ knotsBaromVisibWave heightAir tempDewpointWater temp
2016-Aug-29 20:33S 00°14' W 047°55'6 5.9
2016-Aug-29 19:34S 00°18' W 047°59'9 9.4
2016-Aug-29 18:34S 00°22' W 048°08'9 8.6
2016-Aug-29 17:34S 00°27' W 048°14'1310.8
2016-Aug-29 16:22S 00°37' W 048°22'911.8
2016-Aug-29 15:34S 00°45' W 048°27'9 8.9
2016-Aug-29 14:34S 00°54' W 048°27'1010.1
2016-Aug-29 13:33S 01°04' W 048°29'7 6.7
2016-Aug-29 12:34S 01°10' W 048°33'1010.1
2016-Aug-29 11:33S 01°19' W 048°38'1010.3
2016-Aug-29 10:33S 01°27' W 048°44'3 3.1
2016-Aug-29 09:31S 01°30' W 048°44'0 0.0
2016-Aug-29 08:31S 01°30' W 048°44'0 0.0
2016-Aug-29 07:31S 01°30' W 048°44'0 0.0
2016-Aug-29 06:31S 01°30' W 048°44'0 0.0
2016-Aug-29 05:32S 01°30' W 048°44'0 0.0
2016-Aug-29 04:31S 01°30' W 048°44'0 0.0
2016-Aug-29 03:31S 01°30' W 048°44'0 0.0
2016-Aug-29 02:34S 01°30' W 048°44'0 0.0
2016-Aug-29 01:31S 01°30' W 048°44'0 0.0
2016-Aug-29 00:28S 01°30' W 048°44'0 0.0
2016-Aug-28 23:31S 01°30' W 048°44'0 0.0
2016-Aug-28 22:31S 01°30' W 048°44'0 0.0
2016-Aug-28 21:28S 01°30' W 048°44'0 0.0
2016-Aug-28 20:31S 01°30' W 048°44'0 0.0
2016-Aug-28 19:31S 01°30' W 048°44'0 0.0
2016-Aug-28 18:22S 01°30' W 048°44'0 0.0
2016-Aug-28 17:31S 01°30' W 048°44'0 0.0
2016-Aug-28 16:31S 01°30' W 048°44'0 0.0
2016-Aug-28 15:31S 01°30' W 048°44'0 0.0
2016-Aug-28 14:19S 01°30' W 048°44'0 0.0
2016-Aug-28 13:31S 01°30' W 048°44'0 0.0
2016-Aug-28 12:31S 01°30' W 048°44'0 0.0
2016-Aug-28 11:34S 01°30' W 048°44'0 0.0
2016-Aug-28 10:31S 01°30' W 048°44'0 0.0
2016-Aug-28 09:31S 01°30' W 048°44'0 0.0
2016-Aug-28 08:31S 01°30' W 048°44'0 0.0
2016-Aug-28 07:31S 01°30' W 048°44'0 0.0
2016-Aug-28 06:31S 01°30' W 048°44'0 0.0
2016-Aug-28 05:34S 01°30' W 048°44'0 0.0
2016-Aug-28 04:31S 01°30' W 048°44'0 0.0
2016-Aug-28 03:31S 01°30' W 048°44'0 0.0
2016-Aug-28 02:31S 01°30' W 048°44'0 0.0
2016-Aug-28 01:31S 01°30' W 048°44'0 0.0
2016-Aug-28 00:31S 01°30' W 048°44'0 0.0
2016-Aug-27 23:31S 01°30' W 048°44'0 0.0
2016-Aug-27 22:31S 01°30' W 048°44'0 0.0
2016-Aug-27 21:31S 01°30' W 048°44'0 0.0
2016-Aug-27 20:34S 01°30' W 048°44'0 0.0
2016-Aug-27 19:32S 01°30' W 048°44'0 0.0
2016-Aug-27 18:31S 01°30' W 048°44'0 0.0
2016-Aug-27 17:28S 01°30' W 048°44'0 0.0
2016-Aug-27 16:31S 01°30' W 048°44'0 0.0
2016-Aug-27 15:31S 01°30' W 048°44'0 0.0
2016-Aug-27 14:31S 01°30' W 048°44'0 0.0
2016-Aug-27 13:31S 01°30' W 048°44'0 0.0
2016-Aug-27 12:31S 01°30' W 048°44'0 0.0
2016-Aug-27 11:31S 01°30' W 048°44'0 0.0
2016-Aug-27 10:31S 01°30' W 048°44'0 0.0
2016-Aug-27 09:31S 01°30' W 048°44'0 0.0
2016-Aug-27 08:31S 01°30' W 048°44'0 0.0
2016-Aug-27 07:31S 01°30' W 048°44'0 0.0
2016-Aug-27 06:31S 01°30' W 048°44'0 0.0
2016-Aug-27 04:31S 01°30' W 048°44'0 0.0
2016-Aug-27 03:31S 01°30' W 048°44'0 0.0
2016-Aug-27 02:31S 01°30' W 048°44'0 0.0
2016-Aug-27 01:31S 01°30' W 048°44'0 0.0
2016-Aug-27 00:34S 01°30' W 048°44'0 0.0
2016-Aug-26 23:31S 01°30' W 048°44'0 0.0
2016-Aug-26 22:31S 01°30' W 048°44'0 0.0
2016-Aug-26 21:31S 01°30' W 048°44'0 0.0
2016-Aug-26 20:31S 01°30' W 048°44'0 0.0
2016-Aug-26 19:34S 01°30' W 048°44'0 0.0
2016-Aug-26 18:31S 01°30' W 048°44'0 0.0
2016-Aug-26 17:31S 01°30' W 048°44'0 0.0
2016-Aug-26 16:31S 01°30' W 048°44'0 0.0
2016-Aug-26 15:31S 01°30' W 048°44'0 0.0
2016-Aug-26 14:31S 01°30' W 048°44'0 0.0
2016-Aug-26 13:34S 01°30' W 048°44'0 0.0
2016-Aug-26 12:31S 01°30' W 048°44'0 0.0
2016-Aug-26 11:31S 01°30' W 048°44'0 0.0
2016-Aug-26 10:34S 01°30' W 048°44'0 0.0
2016-Aug-26 09:34S 01°30' W 048°44'0 0.0
2016-Aug-26 08:32S 01°30' W 048°44'0 0.0
2016-Aug-26 07:34S 01°30' W 048°44'0 0.0
2016-Aug-26 06:31S 01°30' W 048°44'0 0.0
2016-Aug-26 04:31S 01°30' W 048°44'0 0.0
2016-Aug-26 03:31S 01°30' W 048°44'0 0.0
2016-Aug-26 02:31S 01°30' W 048°44'0 0.0
2016-Aug-26 01:31S 01°30' W 048°44'0 0.0
2016-Aug-26 00:31S 01°30' W 048°44'0 0.0
2016-Aug-25 23:34S 01°30' W 048°44'0 0.0
2016-Aug-25 22:31S 01°30' W 048°44'0 0.0
2016-Aug-25 21:31S 01°30' W 048°44'0 0.0
2016-Aug-25 20:31S 01°30' W 048°44'1 1.1
2016-Aug-25 19:33S 01°31' W 048°45'1211.9
2016-Aug-25 18:34S 01°20' W 048°40'1414.2
2016-Aug-25 17:33S 01°08' W 048°32'4 3.6
2016-Aug-25 16:22S 01°05' W 048°29'0 0.2
2016-Aug-25 15:31S 01°05' W 048°29'0 0.0
2016-Aug-25 14:31S 01°05' W 048°29'0 0.0
2016-Aug-25 13:31S 01°05' W 048°29'0 0.0
2016-Aug-25 12:31S 01°05' W 048°29'0 0.0
2016-Aug-25 11:31S 01°05' W 048°29'0 0.1
2016-Aug-25 10:31S 01°05' W 048°29'0 0.1
2016-Aug-25 09:32S 01°05' W 048°29'0 0.1
2016-Aug-25 08:31S 01°05' W 048°29'0 0.0
2016-Aug-25 07:28S 01°05' W 048°29'0 0.0
2016-Aug-25 06:31S 01°05' W 048°29'0 0.0
2016-Aug-25 04:31S 01°05' W 048°29'0 0.0
2016-Aug-25 03:31S 01°05' W 048°29'0 0.3
2016-Aug-25 02:28S 01°05' W 048°29'0 0.0
2016-Aug-25 01:31S 01°05' W 048°29'0 0.0
2016-Aug-25 00:33S 01°05' W 048°29'0 0.0
2016-Aug-24 23:31S 01°05' W 048°29'0 0.1
2016-Aug-24 22:28S 01°05' W 048°29'2 2.1
2016-Aug-24 21:34S 01°03' W 048°28'8 8.3
2016-Aug-24 20:33S 00°55' W 048°27'9 9.3
2016-Aug-24 19:33S 00°46' W 048°27'1212.2
2016-Aug-24 18:33S 00°35' W 048°21'2410.9
2016-Aug-24 16:19S 00°19' W 048°02'912.0
2016-Aug-24 15:33S 00°15' W 047°54'11213.8
2016-Aug-24 07:24N 01°06' W 046°36'1314.1
2016-Aug-24 06:27N 01°16' W 046°27'  
Track history (hours):
 
Tides and Currents Weather Stations Pressure Air Temp Water Temp Dewpoint Dewpoint Depression Visibility Wind Speed Wind Dir Waves Ship Positions

Thamesteel1

Last reported at 2016-Aug-29 20:33 UTC. Time now 2016-Sep-25 17:25 UTC.
Position S 00°14' W 047°55'.
Warning: this ship's position is 26 days out of date.

Length 89 m; draft 4.8 m.

Type: Cargo ship. MMSI: 538003096.

Date/timePositionNaut miles runAvg speedWind from/ knotsBaromVisibWave heightAir tempDewpointWater temp
2016-Aug-29 20:33S 00°14' W 047°55'6 5.9
2016-Aug-29 19:34S 00°18' W 047°59'9 9.4
2016-Aug-29 18:34S 00°22' W 048°08'9 8.6
2016-Aug-29 17:34S 00°27' W 048°14'1310.8
2016-Aug-29 16:22S 00°37' W 048°22'911.8
2016-Aug-29 15:34S 00°45' W 048°27'9 8.9
2016-Aug-29 14:34S 00°54' W 048°27'1010.1
2016-Aug-29 13:33S 01°04' W 048°29'7 6.7
2016-Aug-29 12:34S 01°10' W 048°33'1010.1
2016-Aug-29 11:33S 01°19' W 048°38'1010.3
2016-Aug-29 10:33S 01°27' W 048°44'3 3.1
2016-Aug-29 09:31S 01°30' W 048°44'0 0.0
2016-Aug-29 08:31S 01°30' W 048°44'0 0.0
2016-Aug-29 07:31S 01°30' W 048°44'0 0.0
2016-Aug-29 06:31S 01°30' W 048°44'0 0.0
2016-Aug-29 05:32S 01°30' W 048°44'0 0.0
2016-Aug-29 04:31S 01°30' W 048°44'0 0.0
2016-Aug-29 03:31S 01°30' W 048°44'0 0.0
2016-Aug-29 02:34S 01°30' W 048°44'0 0.0
2016-Aug-29 01:31S 01°30' W 048°44'0 0.0
2016-Aug-29 00:28S 01°30' W 048°44'0 0.0
2016-Aug-28 23:31S 01°30' W 048°44'0 0.0
2016-Aug-28 22:31S 01°30' W 048°44'0 0.0
2016-Aug-28 21:28S 01°30' W 048°44'0 0.0
2016-Aug-28 20:31S 01°30' W 048°44'0 0.0
2016-Aug-28 19:31S 01°30' W 048°44'0 0.0
2016-Aug-28 18:22S 01°30' W 048°44'0 0.0
2016-Aug-28 17:31S 01°30' W 048°44'0 0.0
2016-Aug-28 16:31S 01°30' W 048°44'0 0.0
2016-Aug-28 15:31S 01°30' W 048°44'0 0.0
2016-Aug-28 14:19S 01°30' W 048°44'0 0.0
2016-Aug-28 13:31S 01°30' W 048°44'0 0.0
2016-Aug-28 12:31S 01°30' W 048°44'0 0.0
2016-Aug-28 11:34S 01°30' W 048°44'0 0.0
2016-Aug-28 10:31S 01°30' W 048°44'0 0.0
2016-Aug-28 09:31S 01°30' W 048°44'0 0.0
2016-Aug-28 08:31S 01°30' W 048°44'0 0.0
2016-Aug-28 07:31S 01°30' W 048°44'0 0.0
2016-Aug-28 06:31S 01°30' W 048°44'0 0.0
2016-Aug-28 05:34S 01°30' W 048°44'0 0.0
2016-Aug-28 04:31S 01°30' W 048°44'0 0.0
2016-Aug-28 03:31S 01°30' W 048°44'0 0.0
2016-Aug-28 02:31S 01°30' W 048°44'0 0.0
2016-Aug-28 01:31S 01°30' W 048°44'0 0.0
2016-Aug-28 00:31S 01°30' W 048°44'0 0.0
2016-Aug-27 23:31S 01°30' W 048°44'0 0.0
2016-Aug-27 22:31S 01°30' W 048°44'0 0.0
2016-Aug-27 21:31S 01°30' W 048°44'0 0.0
2016-Aug-27 20:34S 01°30' W 048°44'0 0.0
2016-Aug-27 19:32S 01°30' W 048°44'0 0.0
2016-Aug-27 18:31S 01°30' W 048°44'0 0.0
2016-Aug-27 17:28S 01°30' W 048°44'0 0.0
2016-Aug-27 16:31S 01°30' W 048°44'0 0.0
2016-Aug-27 15:31S 01°30' W 048°44'0 0.0
2016-Aug-27 14:31S 01°30' W 048°44'0 0.0
2016-Aug-27 13:31S 01°30' W 048°44'0 0.0
2016-Aug-27 12:31S 01°30' W 048°44'0 0.0
2016-Aug-27 11:31S 01°30' W 048°44'0 0.0
2016-Aug-27 10:31S 01°30' W 048°44'0 0.0
2016-Aug-27 09:31S 01°30' W 048°44'0 0.0
2016-Aug-27 08:31S 01°30' W 048°44'0 0.0
2016-Aug-27 07:31S 01°30' W 048°44'0 0.0
2016-Aug-27 06:31S 01°30' W 048°44'0 0.0
2016-Aug-27 04:31S 01°30' W 048°44'0 0.0
2016-Aug-27 03:31S 01°30' W 048°44'0 0.0
2016-Aug-27 02:31S 01°30' W 048°44'0 0.0
2016-Aug-27 01:31S 01°30' W 048°44'0 0.0
2016-Aug-27 00:34S 01°30' W 048°44'0 0.0
2016-Aug-26 23:31S 01°30' W 048°44'0 0.0
2016-Aug-26 22:31S 01°30' W 048°44'0 0.0
2016-Aug-26 21:31S 01°30' W 048°44'0 0.0
2016-Aug-26 20:31S 01°30' W 048°44'0 0.0
2016-Aug-26 19:34S 01°30' W 048°44'0 0.0
2016-Aug-26 18:31S 01°30' W 048°44'0 0.0
2016-Aug-26 17:31S 01°30' W 048°44'0 0.0
2016-Aug-26 16:31S 01°30' W 048°44'0 0.0
2016-Aug-26 15:31S 01°30' W 048°44'0 0.0
2016-Aug-26 14:31S 01°30' W 048°44'0 0.0
2016-Aug-26 13:34S 01°30' W 048°44'0 0.0
2016-Aug-26 12:31S 01°30' W 048°44'0 0.0
2016-Aug-26 11:31S 01°30' W 048°44'0 0.0
2016-Aug-26 10:34S 01°30' W 048°44'0 0.0
2016-Aug-26 09:34S 01°30' W 048°44'0 0.0
2016-Aug-26 08:32S 01°30' W 048°44'0 0.0
2016-Aug-26 07:34S 01°30' W 048°44'0 0.0
2016-Aug-26 06:31S 01°30' W 048°44'0 0.0
2016-Aug-26 04:31S 01°30' W 048°44'0 0.0
2016-Aug-26 03:31S 01°30' W 048°44'0 0.0
2016-Aug-26 02:31S 01°30' W 048°44'0 0.0
2016-Aug-26 01:31S 01°30' W 048°44'0 0.0
2016-Aug-26 00:31S 01°30' W 048°44'0 0.0
2016-Aug-25 23:34S 01°30' W 048°44'0 0.0
2016-Aug-25 22:31S 01°30' W 048°44'0 0.0
2016-Aug-25 21:31S 01°30' W 048°44'0 0.0
2016-Aug-25 20:31S 01°30' W 048°44'1 1.1
2016-Aug-25 19:33S 01°31' W 048°45'1211.9
2016-Aug-25 18:34S 01°20' W 048°40'1414.2
2016-Aug-25 17:33S 01°08' W 048°32'4 3.6
2016-Aug-25 16:22S 01°05' W 048°29'0 0.2
2016-Aug-25 15:31S 01°05' W 048°29'0 0.0
2016-Aug-25 14:31S 01°05' W 048°29'0 0.0
2016-Aug-25 13:31S 01°05' W 048°29'0 0.0
2016-Aug-25 12:31S 01°05' W 048°29'0 0.0
2016-Aug-25 11:31S 01°05' W 048°29'0 0.1
2016-Aug-25 10:31S 01°05' W 048°29'0 0.1
2016-Aug-25 09:32S 01°05' W 048°29'0 0.1
2016-Aug-25 08:31S 01°05' W 048°29'0 0.0
2016-Aug-25 07:28S 01°05' W 048°29'0 0.0
2016-Aug-25 06:31S 01°05' W 048°29'0 0.0
2016-Aug-25 04:31S 01°05' W 048°29'0 0.0
2016-Aug-25 03:31S 01°05' W 048°29'0 0.3
2016-Aug-25 02:28S 01°05' W 048°29'0 0.0
2016-Aug-25 01:31S 01°05' W 048°29'0 0.0
2016-Aug-25 00:33S 01°05' W 048°29'0 0.0
2016-Aug-24 23:31S 01°05' W 048°29'0 0.1
2016-Aug-24 22:28S 01°05' W 048°29'2 2.1
2016-Aug-24 21:34S 01°03' W 048°28'8 8.3
2016-Aug-24 20:33S 00°55' W 048°27'9 9.3
2016-Aug-24 19:33S 00°46' W 048°27'1212.2
2016-Aug-24 18:33S 00°35' W 048°21'2410.9
2016-Aug-24 16:19S 00°19' W 048°02'912.0
2016-Aug-24 15:33S 00°15' W 047°54'11213.8
2016-Aug-24 07:24N 01°06' W 046°36'1314.1
2016-Aug-24 06:27N 01°16' W 046°27'  

Dump ship's entire track history